FALCON 9 R/B

基本信息
目录编号:
62719
目录名称:
FALCON 9 R/B
国际标识:
2025-010D
轨道中心:
EARTH
物体状态:
在轨
发射日期:
2025-01-15 UTC
国别:
美国 (US)
轨道信息
数据来源: 国际轨道数据
星历时间: 2026-08-14T17:25:42+0800
半长轴: 278426.873km
偏心率: 0.4538426
轨道倾角: 12.940°
近地点辐角: 255.578°
升交点赤经: 286.658°
平近点角: 69.918°
近地点: 145686.76km
远地点: 398410.712km
周期: 24368.369分钟
每日圈数: 0.059093
详细信息
发射场:
AFETR
轨道高度:
HEO
数据来源:
AOE Integration Group
参考系:
TEME
时间系统:
UTC
历元类型:
SGP4
2D轨道图
3D轨道图
轨道高度分析图
轨道倾角分析图
轨道综合分析图
查看轨道综合分析图